Location: Unspecified
(52.4292°N, 19.3359°E)
Time: 01:19:35
(UTC+02:00)

Vanguard 1 Rocket - Pass Details

Date: 21 May 2024
Orbit: 649 x 4221 km, 34.3° (Epoch: 13 June)

Event Time Altitude Azimuth Distance (km) Brightness Sun altitude
Rises 07:48:32 0° 194° (SSW) 8,310 12.2 26.4°
Reaches altitude 10° 07:58:13 10° 177° (S) 6,831 12.0 27.9°
Maximum altitude 08:08:36 16° 148° (SSE) 5,520 12.0 29.5°
Drops below altitude 10° 08:16:42 10° 117° (ESE) 5,198 12.5 30.7°
Sets 08:22:09 0° 98° (E) 5,553 12.6 31.5°
